Regional Weather Roundup
Issued by NWS

Home | Current Version | Previous Version | Text Only | Print | Product List | Glossary On
Versions: 1 2 3 4 5 6 7 8 9 10 11 12 13 14 15 16 17 18 19 20 21 22 23 24 25 26 27 28 29 30 31 32 33 34 35 36 37 38 39 40 41 42 43 44 45 46 47 48 49 50
000
ASUS42 KTBW 061516
RWRFL
FLORIDA REGIONAL WEATHER ROUNDUP
NATIONAL WEATHER SERVICE TAMPA BAY RUSKIN FL
1100 AM EDT MON JUL 06 2015

NOTE: "FAIR" INDICATES FEW OR NO CLOUDS BELOW 12,000 FEET WITH NO
SIGNIFICANT WEATHER AND/OR OBSTRUCTIONS TO VISIBILITY.


FLZ001>010-012>015-112-114-115-061600-
PANHANDLE FLORIDA

CITY           SKY/WX    TMP DP  RH WIND       PRES   REMARKS
PENSACOLA      CLOUDY    79  68  69 NW7       30.20S
PENSACOLA NAS  CLOUDY    82  69  64 NW8       30.19S
MILTON NAS     CLOUDY    77  68  73 NW6       30.20
CRESTVIEW      PTSUNNY   79  68  69 W5        30.21F
DUKE FIELD     PTSUNNY   79  69  70 NW7       30.19F
VALPARAISO     PTSUNNY   81  71  70 N3        30.19S
MARY ESTHER    CLOUDY    82  68  61 NW7       30.18F
TRI COUNTY     FAIR      82  71  69 CALM      30.20F
PANAMA CITY    FAIR      82  73  74 NW5       30.18F
TYNDALL AFB    PTSUNNY   83  73  70 SW8       30.19R
APALACHICOLA   CLOUDY    86  71  60 N5        30.19S

STATION/POSITION SKY/WX   TEMP    WIND        PRES    WAVE   SWELL
                          AIR SEA DIR/SP/G            HT/PER HT/PER
                          (F)     (DEG/KT/KT) (MB)    (FT/S) (FT/S)
30.1N   87.6W              81 84  340/  8/ 10 1021.8R   1/ 6   2/ 6
29.2N   88.2W              84 85  170/  2/  2 1022.7R   1/ 6   2/ 6
28.8N   86.0W              84 84  270/  6/  6 1022.6S   1/10   2/10
PANAMA CITY BEAC           81 82  240/  8/  9 1022.1R
CAPE SAN BLAS    NOT AVBL
TOWER C                    82     270/  6/  7 1022.4R
28.5N   84.5W              85 86  270/  6/  8 1022.2R   2/ 4   2/ 9

$$
FLZ011-016>038-118-127-128-134-139-239-061600-
NORTH FLORIDA

CITY           SKY/WX    TMP DP  RH WIND       PRES   REMARKS
MARIANNA       MOSUNNY   79  71  76 NW6       30.20S
TALLAHASSEE    PTSUNNY   83  71  67 VRB7      30.20S
PERRY          SUNNY     85  72  65 NW8       30.20S
CROSS CITY       N/A     88  74  63 W7        30.19R HX  96
LAKE CITY      FAIR      82  72  69 W8        30.20S
GAINESVILLE    SUNNY     85  70  60 NW10      30.20R
MAYPORT NAS    MOSUNNY   83  70  64 NW7       30.19R
JACKSONVILLE   MOSUNNY   82  70  66 NW10      30.18F
JAX NAS        MOSUNNY   86  68  54 NW10      30.19R
JAX CRAIG      SUNNY     82  70  66 NW10      30.19S
JAX CECIL      SUNNY     82  72  69 NW8       30.19F
FERNANDINA BEA FAIR      86  70  58 NW9       30.18R
ST AUGUSTINE   MOSUNNY   83  72  69 N5        30.20R

STATION/POSITION SKY/WX   TEMP    WIND        PRES    WAVE   SWELL
                          AIR SEA DIR/SP/G            HT/PER HT/PER
                          (F)     (DEG/KT/KT) (MB)    (FT/S) (FT/S)
SHELL POINT                80     300/  5/ 10   N/A
KEATON BEACH               84     270/  6/  7 1022.7R
CEDAR KEY                  86     310/  4/  6 1022.7R
FERNANDINA                 77 81  320/  9/ 11 1021.6R
30.7N   81.3W                 77                N/A     2/ 8
MAYPORT                    78 81  310/  6/  9 1022.5R
31.4N   80.9W              74 79  310/  4/  6 1022.3S   2/ 8   2/ 8
ST AUGUSTINE               73 71  120/  5/  5 1023.3R

$$
FLZ040-043>046-052-053-057-058-063-144-061600-
INTERIOR CENTRAL FLORIDA

CITY           SKY/WX    TMP DP  RH WIND       PRES   REMARKS
OCALA          MOSUNNY   84  73  70 W7        30.19S
THE VILLAGES     N/A    N/A N/A N/A W7        30.09S
LEESBURG       SUNNY     83  73  72 S5        30.21R
SANFORD        SUNNY     81  71  71 CALM      30.19F
ORLANDO EXEC   SUNNY     84  73  69 VRB3      30.20S
ORLANDO INTL   MOSUNNY   85  71  63 SW5       30.19S
KISSIMMEE      SUNNY     84  72  65 S7        30.20S
WINTER HAVEN   SUNNY     84  70  62 SW5       30.21S
LAKELAND       MOSUNNY   84  72  65 CALM      30.20S
OKEECHOBEE     PTSUNNY   79  72  78 CALM      30.21S

$$
FLZ041-047-054-059-064-141-147-061600-
EAST CENTRAL FLORIDA

CITY           SKY/WX    TMP DP  RH WIND       PRES   REMARKS
ORMOND BEACH   MOSUNNY   81  73  78 CALM      30.19S
DAYTONA BEACH  MOSUNNY   83  71  67 NW6       30.20S
DELAND           N/A     82  73  74 CALM      30.21R
NEW SMYRNA BEA MOSUNNY   82  72  69 NE5       30.21S
CAPE CANAVERAL MOSUNNY   83  73  72 VRB2      30.18F
PATRICK AFB    MOSUNNY   84  67  56 VRB2      30.19S
MELBOURNE      MOSUNNY   84  65  52 VRB3      30.19S
VERO BEACH     PTSUNNY   87  69  54 SE5       30.19S
FT PIERCE      PTSUNNY   85  73  67 E3        30.19R
STUART         MOSUNNY   82  70  65 CALM      30.20S

STATION/POSITION SKY/WX   TEMP    WIND        PRES    WAVE   SWELL
                          AIR SEA DIR/SP/G            HT/PER HT/PER
                          (F)     (DEG/KT/KT) (MB)    (FT/S) (FT/S)
28.5N   80.2W              80 81  250/  4/  4 1022.8R
28.9N   78.5W              83 84  210/  4/  6 1022.8R
TRIDENT PIER               82 76  320/  1/  2 1023.0R
28.4N   80.5W                 78                N/A     2/ 9
27.5N   80.2W                 80                N/A     1/ 9

$$
FLZ050-056-061-142-242-148-248-149-249-151-251-155-255-
160-260-061600-
WEST CENTRAL FLORIDA

CITY           SKY/WX    TMP DP  RH WIND       PRES   REMARKS
CRYSTAL RIVER  FAIR      88  72  58 W7        30.19S
INVERNESS      FAIR     N/A N/A N/A W3        30.19S
BROOKSVILLE    SUNNY     89  68  49 NW6       30.19S
ZEPHYRHILLS    FAIR      84  70  61 CALM      30.20S
CLEARWATER     MOSUNNY   84  76  76 E10       30.18R
TAMPA INTL     MOSUNNY   86  74  67 S6        30.19R
TAMPA EXEC     SUNNY    N/A N/A N/A CALM      30.20R
PLANT CITY     SUNNY     88  72  58 SW3       30.21S
MACDILL AFB    MOSUNNY   85  76  75 S5        30.19R
PETER O KNIGHT MOSUNNY   88  73  62 CALM      30.20R HX  96
ST PETERSBURG  MOSUNNY   84  74  71 SE6       30.17R
SARASOTA       MOSUNNY   86  75  69 S9        30.17R HX  95
VENICE         FAIR      86  75  70 SW5       30.19S HX  95

STATION/POSITION SKY/WX   TEMP    WIND        PRES    WAVE   SWELL
                          AIR SEA DIR/SP/G            HT/PER HT/PER
                          (F)     (DEG/KT/KT) (MB)    (FT/S) (FT/S)
CEDAR KEY                  86     310/  4/  6 1022.7R
28.5N   84.5W              85 86  270/  6/  8 1022.2R   2/ 4   2/ 9
27.3N   84.2W                 86                N/A     3/ 5
CLEARWATER BEACH NOT AVBL
MIDDLE TAMPA BAY                  150/  4/  6 1022.4R
VENICE                     82 88   90/  4/  5 1021.7R

$$
FLZ066-069-070-075>078-162-262-165-265-061600-
SOUTHWEST FLORIDA AND KEYS

CITY           SKY/WX    TMP DP  RH WIND       PRES   REMARKS
PUNTA GORDA    SUNNY     85  74  69 S8        30.20S
FT MYERS       SUNNY     84  74  71 NE6       30.19R
SOUTHWEST INTL SUNNY     83  73  72 E5        30.19S
MARCO ISLAND   SUNNY     84  73  70 E7        30.18S
MARATHON       PTSUNNY   88  78  72 E6        30.16R HX 101
KEY WEST NAS   PTSUNNY   89  75  63 SE7       30.16R HX  99
KEY WEST INTL  PTSUNNY   88  78  72 SE8       30.17R HX 101

STATION/POSITION SKY/WX   TEMP    WIND        PRES    WAVE   SWELL
                          AIR SEA DIR/SP/G            HT/PER HT/PER
                          (F)     (DEG/KT/KT) (MB)    (FT/S) (FT/S)
VENICE                     82 88   90/  4/  5 1021.7R
NAPLES                        87              1022.9R
26.0N   85.6W              85 86  100/  6/  8 1021.1R   3/ 8   3/ 8
DRY TORTUGAS               85      70/  6/  7 1021.5R
NW FL BAY                  86     120/  9/ 12 1021.2
SAND KEY                   85     110/  8/  9 1021.4R
SOMBRERO KEY               85     130/  9/ 11 1022.0R
LONG KEY                   85 86  130/ 10/ 12 1022.0R
MOLASSES REEF              84 86  140/ 12/ 13 1021.2R

$$
FLZ067-068-071>074-168-172>174-061600-
SOUTHEAST FLORIDA

CITY           SKY/WX    TMP DP  RH WIND       PRES   REMARKS
W PALM BEACH   CLOUDY    86  74  67 SE6       30.19S
FT LAUDER-EXEC PTSUNNY   88  74  63 SE12      30.17S HX  96
FT LAUDERDALE  MOSUNNY   87  75  67 SE10      30.17R HX  96
POMPANO BEACH  PTSUNNY   88  75  65 S8        30.17S HX  97
PEMBROKE PINES MOSUNNY   89  73  59 E10       30.18S HX  97
OPA LOCKA      MOSUNNY   89  73  59 E10       30.17S HX  97
MIAMI          PTSUNNY   86  73  65 MISG      30.18R
WEST KENDALL   PTSUNNY   87  73  62 SE5       30.17R
HOMESTEAD      MOSUNNY   88  75  64 E8        30.17R HX  97

STATION/POSITION SKY/WX   TEMP    WIND        PRES    WAVE   SWELL
                          AIR SEA DIR/SP/G            HT/PER HT/PER
                          (F)     (DEG/KT/KT) (MB)    (FT/S) (FT/S)
PORT EVERGLADES            85     140/  7/  9 1021.6R
VIRGINIA KEY               84 87  130/  9/ 11 1021.2R
LAKE WORTH                 84 85  110/  4/  5 1021.8R
SETTLEMENT POINT           85     190/  7/  9 1023.2R

$$




USA.gov is the U.S. government's official web portal to all federal, state and local government web resources and services.